David L. Griggs — WDE5778 — position and weather

sailwx.info

Track history (hours):
 
Tides and Currents Weather Stations Pressure Air Temp Water Temp Dewpoint Dewpoint Depression Visibility Wind Speed Wind Dir Waves Ship Positions

David L. Griggs

Owner: Marquette Transportation Company, LLC, Paducah, KY. More information available from US FCC via Universal Licensing System and Coast Guard Vessel Documentation Center.

Last reported at 2017-Feb-19 13:14 UTC. Time now 2017-Feb-21 14:37 UTC.
Position N 30°07' W 090°58'.

Length 50 m.

Type: Tow > 200 m length. MMSI: 367371510.

Date/timePositionNaut miles runAvg speedWind from/ knotsBaromVisibWave heightAir tempDewpointWater temp
2017-Feb-19 13:14N 30°07' W 090°58'0 0.0
2017-Feb-19 12:33N 30°07' W 090°58'0 0.0
2017-Feb-19 10:19N 30°07' W 090°58'0 0.0
2017-Feb-19 08:07N 30°07' W 090°58'0 0.0
2017-Feb-19 07:33N 30°07' W 090°58'0 0.0
2017-Feb-19 06:26N 30°07' W 090°58'0 0.0
2017-Feb-19 05:27N 30°07' W 090°58'111 3.1
2017-Feb-17 18:05N 31°57' W 091°11'5 8.4
2017-Feb-17 17:31N 31°59' W 091°06'7 7.8
2017-Feb-17 16:33N 32°07' W 091°06'6 5.5
2017-Feb-17 15:33N 32°09' W 091°00'9 9.1
2017-Feb-17 14:33N 32°17' W 090°56'5 4.7
2017-Feb-17 13:33N 32°21' W 090°59'7 7.0
2017-Feb-17 12:33N 32°27' W 091°04'8 8.1
2017-Feb-17 11:33N 32°34' W 091°07'  
2017-Feb-09 21:05N 32°38' W 091°09'3 4.9
2017-Feb-09 20:33N 32°36' W 091°08'6 4.9
2017-Feb-09 19:22N 32°30' W 091°07'4 5.2
2017-Feb-09 18:33N 32°27' W 091°04'5 4.6
2017-Feb-09 17:33N 32°24' W 090°59'3 3.3
2017-Feb-09 16:33N 32°21' W 090°58'4 3.6
2017-Feb-09 15:33N 32°19' W 090°55'5 5.0
2017-Feb-09 14:33N 32°15' W 090°59'5 4.7
2017-Feb-09 13:33N 32°10' W 090°60'  
Track history (hours):
 
Tides and Currents Weather Stations Pressure Air Temp Water Temp Dewpoint Dewpoint Depression Visibility Wind Speed Wind Dir Waves Ship Positions

David L. Griggs

Owner: Marquette Transportation Company, LLC, Paducah, KY. More information available from US FCC via Universal Licensing System and Coast Guard Vessel Documentation Center.

Last reported at 2017-Feb-19 13:14 UTC. Time now 2017-Feb-21 14:37 UTC.
Position N 30°07' W 090°58'.

Length 50 m.

Type: Tow > 200 m length. MMSI: 367371510.

Date/timePositionNaut miles runAvg speedWind from/ knotsBaromVisibWave heightAir tempDewpointWater temp
2017-Feb-19 13:14N 30°07' W 090°58'0 0.0
2017-Feb-19 12:33N 30°07' W 090°58'0 0.0
2017-Feb-19 10:19N 30°07' W 090°58'0 0.0
2017-Feb-19 08:07N 30°07' W 090°58'0 0.0
2017-Feb-19 07:33N 30°07' W 090°58'0 0.0
2017-Feb-19 06:26N 30°07' W 090°58'0 0.0
2017-Feb-19 05:27N 30°07' W 090°58'111 3.1
2017-Feb-17 18:05N 31°57' W 091°11'5 8.4
2017-Feb-17 17:31N 31°59' W 091°06'7 7.8
2017-Feb-17 16:33N 32°07' W 091°06'6 5.5
2017-Feb-17 15:33N 32°09' W 091°00'9 9.1
2017-Feb-17 14:33N 32°17' W 090°56'5 4.7
2017-Feb-17 13:33N 32°21' W 090°59'7 7.0
2017-Feb-17 12:33N 32°27' W 091°04'8 8.1
2017-Feb-17 11:33N 32°34' W 091°07'  
2017-Feb-09 21:05N 32°38' W 091°09'3 4.9
2017-Feb-09 20:33N 32°36' W 091°08'6 4.9
2017-Feb-09 19:22N 32°30' W 091°07'4 5.2
2017-Feb-09 18:33N 32°27' W 091°04'5 4.6
2017-Feb-09 17:33N 32°24' W 090°59'3 3.3
2017-Feb-09 16:33N 32°21' W 090°58'4 3.6
2017-Feb-09 15:33N 32°19' W 090°55'5 5.0
2017-Feb-09 14:33N 32°15' W 090°59'5 4.7
2017-Feb-09 13:33N 32°10' W 090°60'  

Dump ship's entire track history